• In Czech Republic
  • List of Countries
  • For 7 days
  • Water Temperature
  • Satellite Maps
  • Weather Map
  • Weather Widgets
  • user-avatar
    Login

    Hourly Weather Teramo

    Today, 23 November, Thursday

    Time Temperature Precipitation Wind Pressure Humidity
    00:00 +10°C° 0 mm 1 mps 736 mmHg 88%
    01:00 +10°C° 0 mm 1 mps 736 mmHg 88%
    02:00 +10°C° 0 mm 1 mps 736 mmHg 88%
    03:00 +10°C° 0 mm 1 mps 735 mmHg 87%
    04:00 +9°C° 0 mm 1 mps 735 mmHg 87%
    05:00 +8°C° 0 mm 2 mps 735 mmHg 86%
    06:00 +8°C° 0 mm 2 mps 735 mmHg 85%
    07:00 +8°C° 0 mm 2 mps 736 mmHg 85%
    08:00 +11°C° 0 mm 1 mps 736 mmHg 78%
    09:00 +13°C° 0 mm 1 mps 736 mmHg 71%
    10:00 +14°C° 0 mm 1 mps 737 mmHg 64%
    11:00 +15°C° 0 mm 1 mps 736 mmHg 60%
    12:00 +16°C° 0 mm 1 mps 736 mmHg 56%
    13:00 +18°C° 0 mm 1 mps 736 mmHg 52%
    14:00 +16°C° 0 mm 1 mps 736 mmHg 59%
    15:00 +15°C° 0 mm 1 mps 736 mmHg 65%
    16:00 +14°C° 0 mm 1 mps 736 mmHg 72%
    17:00 +13°C° 0 mm 1 mps 736 mmHg 75%
    18:00 +12°C° 0 mm 1 mps 736 mmHg 79%
    19:00 +11°C° 0 mm 1 mps 736 mmHg 82%
    20:00 +11°C° 0 mm 1 mps 737 mmHg 81%
    21:00 +10°C° 0 mm 1 mps 737 mmHg 81%
    22:00 +10°C° 0 mm 1 mps 737 mmHg 80%
    23:00 +10°C° 0 mm 1 mps 737 mmHg 79%

    Tomorrow, 24 November, Friday

    Time Temperature Precipitation Wind Pressure Humidity
    00:00 +10°C° 0 mm 1 mps 737 mmHg 78%
    01:00 +10°C° 0 mm 1 mps 737 mmHg 78%
    02:00 +10°C° 0 mm 1 mps 737 mmHg 78%
    03:00 +9°C° 0 mm 2 mps 737 mmHg 79%
    04:00 +9°C° 0 mm 2 mps 737 mmHg 79%
    05:00 +9°C° 0 mm 2 mps 737 mmHg 80%
    06:00 +10°C° 0 mm 1 mps 737 mmHg 81%
    07:00 +10°C° 0 mm 1 mps 737 mmHg 81%
    08:00 +11°C° 0 mm 1 mps 737 mmHg 77%
    09:00 +13°C° 0 mm 1 mps 737 mmHg 72%
    10:00 +15°C° 0 mm 1 mps 737 mmHg 68%
    11:00 +15°C° 0 mm 1 mps 737 mmHg 65%
    12:00 +16°C° 0 mm 1 mps 737 mmHg 61%
    13:00 +18°C° 0 mm 1 mps 737 mmHg 58%
    14:00 +16°C° 0 mm 1 mps 737 mmHg 63%
    15:00 +15°C° 0 mm 1 mps 737 mmHg 68%
    16:00 +14°C° 0 mm 1 mps 736 mmHg 73%
    17:00 +13°C° 0 mm 1 mps 737 mmHg 76%
    18:00 +12°C° 0 mm 1 mps 737 mmHg 80%
    19:00 +11°C° 0 mm 1 mps 737 mmHg 83%
    20:00 +11°C° 0 mm 1 mps 737 mmHg 83%
    21:00 +10°C° 0 mm 2 mps 737 mmHg 83%
    22:00 +10°C° 0 mm 2 mps 737 mmHg 83%
    23:00 +10°C° 0 mm 2 mps 737 mmHg 82%

    Day after tomorrow, 25 November, Saturday

    Time Temperature Precipitation Wind Pressure Humidity
    00:00 +9°C° 0 mm 2 mps 737 mmHg 82%
    01:00 +9°C° 0 mm 2 mps 737 mmHg 81%
    02:00 +9°C° 0 mm 2 mps 736 mmHg 81%
    03:00 +9°C° 0 mm 2 mps 736 mmHg 80%
    04:00 +9°C° 0 mm 2 mps 736 mmHg 79%
    05:00 +9°C° 0 mm 2 mps 736 mmHg 78%
    06:00 +9°C° 0 mm 2 mps 736 mmHg 77%
    07:00 +9°C° 0 mm 2 mps 736 mmHg 76%
    08:00 +12°C° 0 mm 2 mps 736 mmHg 73%
    09:00 +13°C° 0 mm 2 mps 735 mmHg 70%
    10:00 +15°C° 0 mm 2 mps 735 mmHg 67%
    11:00 +14°C° 0 mm 3 mps 735 mmHg 65%
    12:00 +16°C° 0 mm 3 mps 735 mmHg 63%
    13:00 +17°C° 0 mm 3 mps 734 mmHg 61%
    14:00 +16°C° 0.1 mm 3 mps 734 mmHg 67%
    15:00 +14°C° 0.1 mm 3 mps 734 mmHg 73%
    16:00 +13°C° 0.1 mm 3 mps 733 mmHg 79%
    17:00 +13°C° 0 mm 4 mps 733 mmHg 80%
    18:00 +12°C° 0 mm 4 mps 733 mmHg 81%
    19:00 +12°C° 0 mm 4 mps 733 mmHg 82%
    20:00 +12°C° 0 mm 4 mps 733 mmHg 82%
    21:00 +12°C° 0 mm 4 mps 733 mmHg 82%
    22:00 +12°C° 0 mm 4 mps 733 mmHg 81%
    23:00 +12°C° 0 mm 4 mps 733 mmHg 82%

    26 November, Sunday

    Time Temperature Precipitation Wind Pressure Humidity
    00:00 +12°C° 0 mm 4 mps 733 mmHg 82%
    01:00 +11°C° 0 mm 4 mps 732 mmHg 83%
    02:00 +11°C° 0 mm 3 mps 732 mmHg 84%
    03:00 +12°C° 0 mm 3 mps 732 mmHg 85%
    04:00 +12°C° 0 mm 3 mps 731 mmHg 86%
    05:00 +11°C° 0 mm 3 mps 731 mmHg 87%
    06:00 +11°C° 0 mm 3 mps 731 mmHg 87%
    07:00 +11°C° 0 mm 3 mps 731 mmHg 87%
    08:00 +12°C° 0 mm 3 mps 731 mmHg 81%
    09:00 +14°C° 0 mm 2 mps 731 mmHg 74%
    10:00 +15°C° 0 mm 2 mps 731 mmHg 68%
    11:00 +14°C° 0 mm 3 mps 730 mmHg 62%
    12:00 +16°C° 0 mm 3 mps 730 mmHg 57%
    13:00 +16°C° 0 mm 3 mps 729 mmHg 52%
    14:00 +14°C° 0 mm 4 mps 729 mmHg 57%
    15:00 +13°C° 0 mm 4 mps 729 mmHg 62%
    16:00 +12°C° 0 mm 5 mps 729 mmHg 67%
    17:00 +10°C° 0.2 mm 5 mps 730 mmHg 73%
    18:00 +9°C° 0.2 mm 5 mps 730 mmHg 79%
    19:00 +8°C° 0.2 mm 5 mps 731 mmHg 85%
    20:00 +7°C° 0.7 mm 6 mps 732 mmHg 86%
    21:00 +7°C° 0.7 mm 6 mps 732 mmHg 87%
    22:00 +5°C° 0.7 mm 7 mps 733 mmHg 89%
    23:00 +5°C° 0.2 mm 7 mps 734 mmHg 87%

    27 November, Monday

    Time Temperature Precipitation Wind Pressure Humidity
    00:00 +4°C° 0.2 mm 6 mps 734 mmHg 84%
    01:00 +4°C° 0.2 mm 6 mps 735 mmHg 82%
    02:00 +3°C° 0.1 mm 5 mps 735 mmHg 83%
    03:00 +3°C° 0.1 mm 5 mps 735 mmHg 83%
    04:00 +2°C° 0.1 mm 5 mps 736 mmHg 83%
    05:00 +3°C° 0 mm 4 mps 736 mmHg 82%
    06:00 +3°C° 0 mm 4 mps 736 mmHg 82%
    07:00 +2°C° 0 mm 3 mps 737 mmHg 81%
    08:00 +3°C° 0 mm 3 mps 737 mmHg 75%
    09:00 +4°C° 0 mm 4 mps 737 mmHg 68%
    10:00 +5°C° 0 mm 4 mps 738 mmHg 62%
    11:00 +6°C° 0 mm 4 mps 737 mmHg 58%
    12:00 +7°C° 0 mm 4 mps 737 mmHg 55%
    13:00 +7°C° 0 mm 4 mps 737 mmHg 52%
    14:00 +6°C° 0 mm 4 mps 737 mmHg 55%
    15:00 +6°C° 0 mm 4 mps 737 mmHg 59%
    16:00 +5°C° 0 mm 4 mps 737 mmHg 62%
    17:00 +4°C° 0 mm 4 mps 737 mmHg 66%
    18:00 +3°C° 0 mm 4 mps 737 mmHg 69%
    19:00 +2°C° 0 mm 3 mps 737 mmHg 73%
    20:00 +2°C° 0 mm 3 mps 737 mmHg 72%
    21:00 +2°C° 0 mm 3 mps 737 mmHg 71%
    22:00 +2°C° 0 mm 3 mps 737 mmHg 70%
    23:00 +2°C° 0 mm 3 mps 737 mmHg 68%

    28 November, Tuesday

    Time Temperature Precipitation Wind Pressure Humidity
    00:00 +2°C° 0 mm 3 mps 737 mmHg 66%
    01:00 +2°C° 0 mm 3 mps 737 mmHg 64%
    02:00 +3°C° 0 mm 2 mps 737 mmHg 63%
    03:00 +3°C° 0 mm 2 mps 736 mmHg 61%
    04:00 +3°C° 0 mm 2 mps 736 mmHg 59%
    05:00 +3°C° 0 mm 2 mps 736 mmHg 59%
    06:00 +3°C° 0 mm 2 mps 736 mmHg 58%
    07:00 +3°C° 0 mm 2 mps 736 mmHg 58%
    08:00 +4°C° 0 mm 2 mps 736 mmHg 54%
    09:00 +7°C° 0 mm 1 mps 736 mmHg 51%
    10:00 +9°C° 0 mm 1 mps 736 mmHg 48%
    11:00 +9°C° 0 mm 1 mps 736 mmHg 48%
    12:00 +10°C° 0 mm 1 mps 736 mmHg 48%
    13:00 +11°C° 0 mm 1 mps 735 mmHg 48%
    14:00 +10°C° 0 mm 1 mps 735 mmHg 55%
    15:00 +8°C° 0 mm 2 mps 734 mmHg 62%
    16:00 +7°C° 0 mm 2 mps 734 mmHg 69%
    17:00 +6°C° 0 mm 2 mps 734 mmHg 73%
    18:00 +5°C° 0 mm 2 mps 734 mmHg 77%
    19:00 +5°C° 0 mm 2 mps 734 mmHg 81%
    20:00 +5°C° 0 mm 2 mps 734 mmHg 82%
    21:00 +5°C° 0 mm 2 mps 734 mmHg 82%
    22:00 +3°C° 0 mm 3 mps 734 mmHg 83%
    23:00 +3°C° 0 mm 3 mps 733 mmHg 83%
    Show more